Theta_e
325 325 325 328 331 335 338 340 340 340 340 344 346 346 348 350 350 346 344 347 347 347 348 348 349 348 349 349 352 353 353 353 354 355 356 355 354 352 351 352 353 355 355 354
326 325 326 328 331 333 336 340 341 340 341 342 344 346 348 351 351 350 348 346 347 347 347 348 349 348 350 351 353 355 356 356 357 357 355 353 350 348 350 354 354 356 354 354
325 325 326 328 330 333 335 338 340 340 343 345 346 348 346 347 350 350 349 347 347 346 346 348 350 350 350 351 353 357 358 359 359 357 355 356 354 351 352 347 350 354 352 352
325 326 325 326 329 332 334 336 338 339 348 352 344 350 348 346 347 350 351 350 348 347 346 346 349 351 351 351 354 357 360 360 360 360 357 354 354 351 347 346 347 347 348 348
326 325 326 326 327 330 333 336 338 338 341 346 344 345 346 345 346 346 350 351 349 347 347 346 348 349 350 351 353 356 360 362 361 361 357 356 354 349 349 347 349 347 349 348
327 327 326 326 327 329 330 335 337 338 339 346 347 347 347 347 346 346 345 349 351 349 348 348 346 347 348 350 352 353 360 363 364 362 362 360 358 352 351 350 350 347 348 347
328 327 326 326 326 328 329 334 339 341 342 342 346 346 352 344 345 344 343 344 348 351 347 347 349 348 348 350 351 352 359 365 365 363 362 361 360 358 355 355 350 346 346 346
330 330 328 325 325 327 329 332 338 343 342 341 341 346 346 345 341 342 342 340 344 350 350 346 347 347 347 348 353 354 357 364 365 364 364 362 362 358 356 353 351 345 344 344
331 331 329 327 326 326 328 332 334 337 338 340 340 340 340 342 342 341 340 339 339 348 350 347 346 345 345 348 352 355 356 362 364 364 365 364 362 360 354 352 352 350 343 342
330 332 330 328 327 326 326 330 335 338 345 345 340 340 341 343 341 340 339 338 339 341 348 348 347 346 346 346 349 353 356 362 364 363 365 364 363 362 359 357 357 352 346 343
328 330 331 330 329 327 325 329 332 335 338 341 342 342 338 341 341 340 339 338 338 339 345 349 348 346 347 346 347 352 357 360 363 363 363 362 362 360 361 358 357 355 350 347
328 330 333 331 329 328 327 327 330 342 341 338 339 338 338 337 338 337 338 338 338 338 340 345 348 348 347 349 348 350 353 356 361 361 364 363 362 359 359 360 358 358 353 349
328 330 333 333 330 329 328 327 327 330 334 345 341 339 338 337 337 337 337 336 337 337 338 339 346 349 353 353 352 351 354 353 356 360 361 363 363 361 359 360 358 358 355 350
332 329 331 335 333 329 328 327 327 328 334 335 337 338 338 337 337 336 336 337 337 336 342 345 343 347 354 354 356 356 355 353 355 357 358 361 364 363 361 359 359 359 355 350
330 333 332 331 332 332 329 326 326 326 329 332 333 335 337 337 337 338 336 336 336 338 339 347 348 347 360 358 359 358 358 357 355 358 360 361 364 363 362 358 359 359 354 350
329 332 333 333 331 330 330 330 328 327 326 327 329 331 334 335 337 337 336 336 336 336 336 344 350 351 359 360 362 361 360 359 357 361 361 362 365 363 362 360 358 358 354 348
329 331 333 334 333 333 333 331 331 331 330 329 328 329 330 333 336 338 343 338 337 337 341 337 350 355 361 358 360 361 362 360 360 361 362 363 365 365 363 361 359 357 353 348
329 334 333 336 336 338 333 332 331 331 331 331 331 331 329 330 332 336 337 340 340 339 340 340 347 351 354 355 357 359 359 361 363 363 363 364 365 365 363 360 358 356 351 349
329 331 332 335 337 337 336 337 337 339 337 332 331 331 331 329 329 333 334 336 339 341 342 341 344 348 353 356 359 361 361 361 363 363 364 364 364 365 362 358 356 353 351 348
330 335 337 337 338 341 337 341 340 340 336 333 335 337 333 330 330 334 336 333 334 338 340 342 342 348 351 356 356 361 362 363 364 363 362 363 363 362 360 357 355 352 350 348
328 332 335 338 339 336 343 339 339 341 341 346 345 344 343 341 334 332 334 336 336 340 342 347 349 350 358 356 356 362 360 361 359 358 359 360 360 359 358 354 353 351 348 346
328 332 332 336 338 340 341 340 342 348 346 345 346 344 342 343 339 332 345 346 345 344 345 347 350 352 354 356 359 361 360 358 357 357 359 360 359 357 356 354 352 348 347 344
331 332 333 333 336 345 341 343 340 341 344 345 345 343 343 343 343 345 347 348 349 349 350 350 353 356 352 356 357 360 362 360 359 359 360 359 357 355 353 352 347 344 344 344
332 331 337 344 345 343 340 337 338 338 340 343 344 344 344 347 349 350 350 349 349 350 351 351 353 356 356 358 361 362 360 360 359 359 355 352 351 351 348 346 345 344 343 344
336 338 339 346 343 340 338 337 336 336 336 340 343 346 347 348 348 349 349 347 346 347 346 347 350 352 354 355 355 356 356 356 355 352 349 348 346 347 343 339 341 345 341 343
330 335 341 350 341 342 336 333 332 333 335 335 336 338 338 339 342 342 346 347 345 344 343 345 348 352 353 353 353 353 353 353 351 350 349 348 345 344 343 339 331 333 333 333
Wind_Speed
21 18 24 27 25 24 23 21 18 15 24 19 17 14 13 15 16 16 19 17 19 20 20 25 25 25 24 23 23 22 21 20 19 18 16 17 18 18 13 13 13 11 9 12
17 24 25 25 26 25 28 23 17 13 21 20 18 19 18 17 15 16 17 20 20 20 20 23 26 27 27 27 25 24 23 21 22 20 20 16 14 15 15 17 10 9 10 10
23 23 25 25 26 27 27 26 18 18 19 17 16 18 19 17 19 16 16 17 21 22 22 22 24 28 28 29 28 27 26 24 23 22 20 13 11 11 8 11 11 12 11 11
25 20 25 27 29 27 25 25 24 19 14 15 19 16 22 19 21 20 19 18 20 23 22 22 24 29 31 31 30 27 27 26 25 24 21 20 16 17 16 13 8 7 8 10
25 22 25 29 29 28 25 25 23 23 19 20 23 18 11 21 19 19 21 21 21 21 23 24 24 32 31 31 31 30 28 27 26 26 25 19 20 16 11 9 6 9 10 9
25 22 27 21 26 24 24 25 24 24 18 16 23 18 20 16 18 19 22 22 22 22 23 23 28 31 33 32 32 31 30 29 29 26 27 23 18 20 13 14 11 11 11 12
23 28 23 22 23 25 28 24 16 19 18 20 25 19 23 18 18 18 19 21 23 22 21 22 23 23 30 32 33 31 31 31 30 29 27 27 24 19 17 11 15 12 14 13
19 21 30 21 27 27 31 29 19 25 17 20 25 24 21 19 11 15 16 15 20 22 21 22 24 25 29 31 32 32 31 31 31 30 29 27 26 25 22 20 16 16 15 14
22 25 22 27 28 29 30 28 28 27 24 19 21 19 22 7 18 18 14 17 14 21 22 25 25 29 31 31 33 34 31 32 33 32 30 29 28 27 25 22 24 18 16 12
22 17 23 27 24 26 32 24 26 23 28 27 24 22 17 19 16 17 19 16 14 16 21 23 24 28 32 34 33 33 34 32 32 31 32 31 30 29 26 24 21 22 17 17
25 19 15 24 30 30 21 27 23 25 24 21 20 19 21 18 18 20 22 22 17 19 19 20 22 30 34 34 35 35 34 33 32 33 33 31 31 29 29 27 25 23 19 19
26 17 17 22 23 26 27 29 32 17 28 20 22 19 14 17 15 12 16 16 20 17 18 20 21 25 31 33 36 36 37 37 36 35 33 33 31 32 31 31 28 27 24 23
23 21 17 19 19 23 30 31 31 31 22 26 22 20 21 7 13 21 18 17 14 9 3 8 18 20 21 31 33 34 36 38 37 35 34 33 33 34 34 33 30 29 29 30
11 22 26 19 23 17 28 28 31 29 23 22 26 25 22 22 15 9 9 16 12 8 8 10 13 18 20 29 35 33 35 37 36 35 34 33 34 33 33 32 32 31 33 34
17 21 23 27 26 23 23 26 27 33 29 28 25 29 27 25 24 20 20 17 16 17 11 13 15 16 17 23 29 34 31 33 34 33 33 32 31 31 30 31 30 31 31 33
20 17 19 21 24 26 24 24 30 27 29 29 29 31 23 27 24 19 18 18 20 15 14 13 14 16 17 22 26 30 32 31 31 30 31 30 30 30 30 29 28 29 29 30
24 18 19 22 20 18 22 26 24 23 28 26 28 28 26 28 25 23 21 21 20 20 19 16 14 17 15 24 26 27 29 29 29 26 28 28 30 30 29 27 28 29 29 28
20 22 17 16 20 25 18 24 27 27 27 26 28 27 27 27 27 27 22 21 23 23 22 20 14 16 24 29 29 26 28 28 27 27 25 27 26 26 26 27 27 27 28 30
19 18 17 17 19 16 18 18 6 5 13 18 22 21 24 27 26 26 26 27 22 21 20 20 18 22 25 28 28 27 26 27 26 25 25 25 26 26 26 28 29 30 31 30
20 14 15 18 24 25 14 6 2 2 12 14 16 20 23 21 19 17 21 26 24 15 13 16 16 21 27 26 30 28 27 28 27 27 26 25 26 26 26 25 23 22 23 26
21 19 20 18 16 20 13 5 4 9 6 8 11 16 19 19 18 18 15 22 15 12 15 14 14 18 21 25 27 24 25 25 26 26 24 22 22 21 20 21 21 22 23 21
23 21 16 19 21 16 9 11 11 4 6 10 12 12 16 19 22 17 4 3 7 10 12 17 15 18 23 23 25 21 19 22 23 23 24 22 20 18 17 19 17 18 17 17
23 20 16 17 19 13 10 10 4 5 4 7 8 7 9 5 4 7 5 4 6 11 12 16 18 19 19 24 24 21 20 22 21 21 20 19 17 15 14 15 16 17 16 15
17 24 19 10 12 14 14 11 8 8 4 3 6 9 5 12 13 13 13 11 9 10 12 18 21 18 17 21 21 21 20 20 20 18 16 15 17 16 14 14 13 12 15 15
5 16 14 21 21 20 16 14 13 11 11 8 16 16 16 16 13 13 12 12 10 9 15 18 18 19 18 21 22 19 19 19 20 18 18 18 17 14 13 11 8 9 8 7
2 7 4 12 19 20 16 15 15 13 13 13 15 17 16 15 14 16 14 11 10 11 14 15 19 20 21 19 19 18 18 19 20 20 19 19 17 16 16 16 12 12 9 8
Wind_Direction
194 204 211 212 218 230 231 211 231 209 163 194 196 228 159 176 201 198 187 192 193 201 197 200 199 197 197 198 196 199 205 198 203 204 208 216 215 216 232 250 247 252 243 238
185 215 214 219 220 225 241 242 222 209 160 193 202 206 183 181 200 208 203 192 204 200 204 197 197 201 199 198 195 195 199 201 200 200 215 227 218 227 225 214 215 223 244 239
211 207 216 213 222 222 231 244 234 218 165 181 229 217 205 191 188 208 217 211 200 209 203 193 199 203 201 200 200 193 197 199 203 219 201 218 242 253 249 233 238 222 217 221
226 215 203 222 222 221 225 233 251 231 132 238 209 245 195 202 204 196 212 215 211 203 208 200 197 203 205 203 201 200 195 201 204 208 223 208 209 224 220 226 216 191 207 209
218 219 217 212 220 222 229 225 233 247 230 221 202 227 212 204 201 197 207 210 215 208 206 208 200 201 208 206 203 202 198 200 207 203 213 213 218 219 226 215 172 199 183 199
237 211 229 218 224 224 230 237 233 234 249 238 231 204 238 172 211 193 201 202 210 211 204 206 210 204 203 207 206 204 195 200 202 205 205 222 212 225 217 208 187 196 199 198
222 229 217 233 220 217 224 227 228 230 220 239 227 207 238 222 193 210 212 206 197 204 207 201 206 207 203 203 203 204 195 196 200 203 205 207 218 208 228 210 209 209 205 200
213 215 226 206 222 218 216 220 223 223 227 228 236 230 214 219 230 195 204 228 194 190 203 206 202 204 201 200 200 202 196 193 198 202 204 204 207 211 212 215 222 211 217 201
211 226 213 213 216 229 213 222 225 235 229 235 229 222 240 241 215 230 253 250 215 185 199 205 202 202 202 197 198 198 199 195 198 200 202 202 202 208 213 216 210 221 217 200
234 238 214 206 218 224 239 215 222 230 238 236 227 237 221 203 223 245 232 245 234 224 196 207 203 199 200 197 197 197 199 198 199 200 201 203 203 204 210 211 210 213 210 213
231 238 229 213 202 215 218 236 222 231 237 245 245 235 224 198 206 222 227 233 222 207 196 204 203 203 198 199 197 196 198 201 201 203 204 204 204 205 205 212 209 209 211 200
216 225 220 228 225 210 232 226 232 227 222 244 257 250 218 212 184 226 222 222 207 212 209 192 205 200 199 200 202 198 201 202 204 205 204 203 201 201 204 208 209 205 204 200
200 224 225 225 228 216 216 234 227 234 227 230 237 239 250 213 211 207 224 253 254 240 264 234 190 201 199 194 201 201 198 203 204 204 204 204 202 203 203 204 205 202 201 196
251 217 224 219 224 221 215 220 239 236 232 236 236 245 239 238 222 234 235 251 238 215 187 243 235 204 199 195 194 201 198 203 202 202 205 203 203 205 204 204 204 201 200 196
236 226 230 226 253 227 222 218 228 239 237 238 243 233 236 240 235 216 211 231 238 237 216 210 234 223 194 195 193 197 203 198 202 199 200 202 201 202 205 206 206 205 202 205
220 227 238 231 232 241 251 227 211 227 246 250 249 254 243 242 248 243 230 232 234 242 251 209 224 231 197 195 196 193 201 200 201 196 199 197 194 197 202 204 209 203 207 208
212 217 214 230 237 237 241 245 250 241 221 228 243 253 256 257 255 247 231 239 248 250 257 253 213 220 201 193 192 197 197 198 194 200 193 194 191 192 196 200 204 208 207 208
221 212 223 229 221 231 239 237 236 246 254 252 234 234 240 248 253 257 257 234 237 249 258 262 204 213 202 198 192 193 192 192 190 193 195 190 190 189 193 197 203 201 206 210
234 217 218 229 233 235 201 256 293 273 266 242 258 263 241 237 245 243 244 247 243 235 243 236 202 208 200 193 181 179 182 186 186 186 191 186 187 192 194 199 200 204 206 209
232 230 231 210 238 231 231 111 32 299 258 268 284 292 271 244 234 242 227 247 235 240 256 261 216 199 188 189 179 176 183 178 181 181 182 184 188 194 197 202 203 203 210 213
213 215 222 225 224 240 113 108 144 217 265 339 309 290 288 283 250 252 251 228 237 224 234 222 201 186 172 183 173 174 180 178 175 173 175 179 188 193 196 196 198 198 207 206
205 200 213 222 229 222 132 162 229 27 340 327 302 287 276 270 272 227 174 212 207 215 208 192 178 163 170 160 151 164 166 163 162 162 166 172 176 187 192 191 195 187 192 202
205 206 205 215 221 105 78 81 79 26 353 312 309 309 276 277 64 104 136 114 152 171 180 162 141 136 155 140 150 154 155 153 152 155 154 161 165 175 176 178 157 168 193 209
197 200 209 127 123 110 79 72 80 75 59 342 41 53 98 98 91 89 87 91 104 125 128 132 136 126 140 130 128 131 139 141 145 136 135 142 139 144 147 156 166 177 199 206
40 320 208 120 127 111 102 83 79 72 58 75 56 58 58 72 77 87 85 96 104 114 125 130 126 118 114 114 119 128 136 139 140 139 141 139 140 142 128 126 126 159 163 192
3 355 293 137 149 103 98 94 84 72 72 52 75 89 86 82 84 72 66 59 93 96 108 107 100 102 105 107 113 122 129 135 135 137 139 138 140 149 150 142 119 121 129 140